Location: Newark
(45.2678°N, 4.7433°E)
Time: 14:40:35
(UTC+00:00)

ISS - Visible Passes

Search period start: 20 November 2019 00:00
Search period end: 30 November 2019 00:00
Orbit: 412 x 421 km, 51.6° (Epoch: 20 November)

Date Brightness Start Highest point End Pass type
(mag) Time Alt. Az. Time Alt. Az. Time Alt. Az.
21 Nov -1.8 18:14:36 10° SSW 18:16:05 21° S 18:16:05 21° S visible
22 Nov -2.2 17:26:48 10° S 17:29:25 21° SE 17:29:56 20° ESE visible
22 Nov -0.4 19:02:34 10° WSW 19:02:51 12° WSW 19:02:51 12° WSW visible
23 Nov -1.5 16:39:34 10° SSE 16:41:12 13° SE 16:42:51 10° ESE visible
23 Nov -2.9 18:14:07 10° WSW 18:16:37 47° SW 18:16:37 47° SW visible
24 Nov -3.5 17:25:49 10° SW 17:29:05 52° SE 17:30:18 32° E visible
24 Nov -0.4 19:02:46 10° W 19:03:12 13° W 19:03:12 13° W visible
25 Nov -2.6 16:37:44 10° SSW 16:40:45 32° SE 16:43:47 10° ENE visible
25 Nov -2.7 18:14:08 10° W 18:16:48 42° WNW 18:16:48 42° WNW visible
26 Nov -3.6 17:25:34 10° WSW 17:28:54 69° NNW 17:30:21 31° NE visible
26 Nov -0.3 19:03:05 10° WNW 19:03:15 11° WNW 19:03:15 11° WNW visible
27 Nov -3.7 16:37:06 10° SW 16:40:27 79° SSE 16:43:48 10° ENE visible
27 Nov -2.1 18:14:23 10° WNW 18:16:45 28° NW 18:16:45 28° NW visible
28 Nov -2.8 17:25:40 10° W 17:28:51 38° NNW 17:30:13 25° NNE visible
29 Nov -3.2 16:37:01 10° W 16:40:17 50° NNW 16:43:35 10° NE visible
29 Nov -1.8 18:14:36 10° WNW 18:16:32 23° NNW 18:16:32 23° NNW visible
